Weather History for Lee's Summit, MO

Change the Weather History Date:

Sunday, January 20, 2013

  Actual Average (KMKC) Record (KMKC)
Temperature  
Mean Temperature 30 °F -  
Max Temperature 39 °F 37 °F 68 °F (1997)
Min Temperature 19 °F 21 °F 5 °F (2008)
Degree Days  
Heating Degree Days 35    
Moisture  
Dew Point 11 °F    
Average Humidity 49    
Maximum Humidity 65    
Minimum Humidity 38    
Precipitation  
Precipitation 0.00 in - - ()
Sea Level Pressure  
Sea Level Pressure 30.35 in    
Wind  
Wind Speed 12 mph (NNE)    
Max Wind Speed 18 mph    
Max Gust Speed 21 mph    
Visibility 10 miles    
Events      
Averages and records for this station are not official NWS values.
T = Trace of Precipitation, MM = Missing Value Source: NWS Daily Summary

Daily Weather History Graph

Daily Weather History Graph

Search for Another Location

Airport:

Trip Planner

Search our weather history database for the weather conditions in past years. The results will help you decide how hot, cold, wet, or windy it might be!

Date:

Astronomy

Jan. 20, 2013 Rise Set
Actual Time 7:32 AM CST 5:25 PM CST
Civil Twilight 7:03 AM CST 5:54 PM CST
Nautical Twilight 6:30 AM CST 6:26 PM CST
Astronomical Twilight 5:59 AM CST 6:58 PM CST
Moon 12:26 PM CST (1/20) 2:05 AM CST (1/20)
Length of Visible Light 10h 50m
Length of Day
9h 53m
Waxing Gibbous, 66% of the Moon is Illuminated
Jan 20
Waxing Gibbous
Jan 26
Full
Feb 3
Last Quarter
Feb 10
New
Feb 17
First Quarter

Hourly Weather History & Observations

Time (CST) Temp. Windchill Dew Point Humidity Pressure Visibility Wind Dir Wind Speed Gust Speed Precip Events Conditions
12:53 AM 39.0 °F 29.6 °F 28.0 °F 65% 30.28 in 10.0 mi North 18.4 mph - N/A   Clear
1:53 AM 36.0 °F 26.7 °F 21.9 °F 57% 30.31 in 10.0 mi North 15.0 mph 20.7 mph N/A   Clear
2:53 AM 33.1 °F 23.9 °F 19.0 °F 56% 30.32 in 10.0 mi North 12.7 mph - N/A   Clear
3:53 AM 30.0 °F 21.1 °F 12.0 °F 47% 30.31 in 10.0 mi NNE 10.4 mph - N/A   Clear
4:53 AM 27.0 °F 17.3 °F 10.0 °F 49% 30.32 in 10.0 mi North 10.4 mph - N/A   Clear
5:53 AM 25.0 °F 14.2 °F 8.1 °F 49% 30.33 in 10.0 mi North 11.5 mph - N/A   Clear
6:53 AM 23.0 °F 13.9 °F 9.0 °F 55% 30.33 in 10.0 mi NNE 8.1 mph - N/A   Clear
7:53 AM 23.0 °F 12.4 °F 8.1 °F 53% 30.33 in 10.0 mi NE 10.4 mph - N/A   Clear
8:53 AM 24.1 °F 12.5 °F 8.1 °F 51% 30.32 in 10.0 mi ENE 12.7 mph - N/A   Clear
9:53 AM 27.0 °F 18.0 °F 9.0 °F 47% 30.36 in 10.0 mi ENE 9.2 mph - N/A   Clear
10:53 AM 28.9 °F 21.1 °F 9.0 °F 43% 30.37 in 10.0 mi NE 8.1 mph - N/A   Clear
11:53 AM 32.0 °F 23.6 °F 10.0 °F 40% 30.35 in 10.0 mi NE 10.4 mph - N/A   Clear
12:53 PM 32.0 °F 25.6 °F 9.0 °F 38% 30.32 in 10.0 mi ENE 6.9 mph - N/A   Clear
1:53 PM 30.9 °F 21.7 °F 9.0 °F 40% 30.31 in 10.0 mi NNE 11.5 mph - N/A   Clear
2:53 PM 30.9 °F 22.8 °F 9.0 °F 40% 30.32 in 10.0 mi North 9.2 mph - N/A   Clear
3:53 PM 30.9 °F 21.7 °F 9.0 °F 40% 30.33 in 10.0 mi NNE 11.5 mph - N/A   Clear
4:53 PM 30.0 °F 19.5 °F 10.0 °F 43% 30.33 in 10.0 mi NNE 13.8 mph - N/A   Clear
5:53 PM 28.0 °F 18.1 °F 7.0 °F 41% 30.35 in 10.0 mi NNE 11.5 mph - N/A   Mostly Cloudy
6:53 PM 27.0 °F 15.6 °F 8.1 °F 45% 30.38 in 10.0 mi North 13.8 mph - N/A   Overcast
7:53 PM 25.0 °F 13.1 °F 7.0 °F 46% 30.40 in 10.0 mi North 13.8 mph - N/A   Scattered Clouds
8:53 PM 24.1 °F 14.4 °F 8.1 °F 51% 30.40 in 10.0 mi North 9.2 mph - N/A   Mostly Cloudy
9:53 PM 23.0 °F - 8.1 °F 53% 30.40 in 10.0 mi North - - N/A   Clear
10:53 PM 21.9 °F 12.5 °F 9.0 °F 58% 30.43 in 10.0 mi North 8.1 mph - N/A   Clear
11:53 PM 19.0 °F 10.0 °F 8.1 °F 62% 30.43 in 10.0 mi NNW 6.9 mph - N/A   Clear